Time,TemperatureF,DewpointF,PressureIn,WindDirection,WindDirectionDegrees,WindSpeedMPH,WindSpeedGustMPH,Humidity,HourlyPrecipIn,Conditions,Clouds,dailyrainin,SoftwareType,DateUTC
2013-08-08 00:02:00,59.7,54.5,29.99,NE,52,1.0,2.0,83,0.00,,,0.00,Wunderground v.1.15,2013-08-08 05:02:00,
2013-08-08 00:08:00,59.6,54.4,29.99,ENE,78,1.0,1.0,83,0.00,,,0.00,Wunderground v.1.15,2013-08-08 05:08:00,
2013-08-08 00:14:00,59.5,54.3,29.98,South,171,2.0,2.0,83,0.00,,,0.00,Wunderground v.1.15,2013-08-08 05:14:00,
2013-08-08 00:20:00,59.3,54.8,29.99,SSE,158,1.0,4.0,85,0.00,,,0.00,Wunderground v.1.15,2013-08-08 05:20:00,
2013-08-08 00:26:00,59.1,54.6,29.99,SSE,158,1.0,2.0,85,0.00,,,0.00,Wunderground v.1.15,2013-08-08 05:26:00,
2013-08-08 00:32:00,58.9,54.1,29.99,NE,53,3.0,3.0,84,0.00,,,0.00,Wunderground v.1.15,2013-08-08 05:32:00,
2013-08-08 00:37:00,58.8,54.0,29.98,NE,37,1.0,2.0,84,0.00,,,0.00,Wunderground v.1.15,2013-08-08 05:37:00,
2013-08-08 00:43:00,58.7,53.9,29.99,NE,37,0.0,2.0,84,0.00,,,0.00,Wunderground v.1.15,2013-08-08 05:43:00,
2013-08-08 00:48:00,58.7,53.5,29.99,North,9,0.0,1.0,83,0.00,,,0.00,Wunderground v.1.15,2013-08-08 05:48:00,
2013-08-08 00:54:00,58.7,53.5,29.99,SSE,151,1.0,1.0,83,0.00,,,0.00,Wunderground v.1.15,2013-08-08 05:54:00,
2013-08-08 01:00:00,58.7,53.5,29.99,East,82,1.0,2.0,83,0.00,,,0.00,Wunderground v.1.15,2013-08-08 06:00:00,
2013-08-08 01:06:00,58.8,53.6,29.99,ESE,117,0.0,1.0,83,0.00,,,0.00,Wunderground v.1.15,2013-08-08 06:06:00,
2013-08-08 01:12:00,58.8,54.0,29.99,SSE,147,2.0,2.0,84,0.00,,,0.00,Wunderground v.1.15,2013-08-08 06:12:00,
2013-08-08 01:17:00,58.8,54.0,29.99,SSE,158,2.0,2.0,84,0.00,,,0.00,Wunderground v.1.15,2013-08-08 06:17:00,
2013-08-08 01:23:00,58.7,53.5,29.99,SSE,150,2.0,2.0,83,0.00,,,0.00,Wunderground v.1.15,2013-08-08 06:23:00,
2013-08-08 01:29:00,58.6,53.8,29.99,SSE,150,0.0,2.0,84,0.00,,,0.00,Wunderground v.1.15,2013-08-08 06:29:00,
2013-08-08 01:35:00,58.6,53.8,29.98,NNE,21,2.0,2.0,84,0.00,,,0.00,Wunderground v.1.15,2013-08-08 06:35:00,
2013-08-08 01:40:00,58.4,53.6,29.98,NE,38,1.0,4.0,84,0.00,,,0.00,Wunderground v.1.15,2013-08-08 06:40:00,
2013-08-08 01:46:00,58.1,53.3,29.98,NE,42,3.0,3.0,84,0.00,,,0.00,Wunderground v.1.15,2013-08-08 06:46:00,
2013-08-08 01:52:00,57.9,53.4,29.98,NE,43,2.0,4.0,85,0.00,,,0.00,Wunderground v.1.15,2013-08-08 06:52:00,
2013-08-08 01:57:00,57.8,53.3,29.98,ENE,61,0.0,2.0,85,0.00,,,0.00,Wunderground v.1.15,2013-08-08 06:57:00,
2013-08-08 02:03:00,57.9,53.4,29.98,SE,131,1.0,2.0,85,0.00,,,0.00,Wunderground v.1.15,2013-08-08 07:03:00,
2013-08-08 02:08:00,58.0,53.5,29.97,SSE,159,2.0,3.0,85,0.00,,,0.00,Wunderground v.1.15,2013-08-08 07:08:00,
2013-08-08 02:13:00,58.1,53.3,29.97,SSE,150,0.0,4.0,84,0.00,,,0.00,Wunderground v.1.15,2013-08-08 07:13:00,
2013-08-08 02:18:00,58.2,53.4,29.97,SSE,159,1.0,4.0,84,0.00,,,0.00,Wunderground v.1.15,2013-08-08 07:18:00,
2013-08-08 02:23:00,58.2,53.4,29.97,SSE,150,2.0,4.0,84,0.00,,,0.00,Wunderground v.1.15,2013-08-08 07:23:00,
2013-08-08 02:28:00,58.2,53.1,29.97,SSE,159,1.0,3.0,83,0.00,,,0.00,Wunderground v.1.15,2013-08-08 07:28:00,
2013-08-08 02:33:00,58.3,53.5,29.97,South,171,1.0,3.0,84,0.00,,,0.00,Wunderground v.1.15,2013-08-08 07:33:00,
2013-08-08 02:38:00,58.2,53.1,29.97,SSE,167,3.0,3.0,83,0.00,,,0.00,Wunderground v.1.15,2013-08-08 07:38:00,
2013-08-08 02:43:00,58.3,53.2,29.97,SSE,166,3.0,3.0,83,0.00,,,0.00,Wunderground v.1.15,2013-08-08 07:43:00,
2013-08-08 02:48:00,58.3,53.2,29.97,SSE,166,1.0,3.0,83,0.00,,,0.00,Wunderground v.1.15,2013-08-08 07:48:00,
2013-08-08 02:53:00,58.3,53.5,29.98,SSE,166,0.0,3.0,84,0.00,,,0.00,Wunderground v.1.15,2013-08-08 07:53:00,
2013-08-08 02:58:00,58.2,53.4,29.98,SSE,166,0.0,1.0,84,0.00,,,0.00,Wunderground v.1.15,2013-08-08 07:58:00,
2013-08-08 03:03:00,58.2,53.7,29.98,SSE,166,0.0,1.0,85,0.00,,,0.00,Wunderground v.1.15,2013-08-08 08:03:00,
2013-08-08 03:08:00,58.2,54.0,29.98,SSE,166,0.0,1.0,86,0.00,,,0.00,Wunderground v.1.15,2013-08-08 08:08:00,
2013-08-08 03:13:00,58.2,54.3,29.98,SSE,166,0.0,1.0,87,0.00,,,0.00,Wunderground v.1.15,2013-08-08 08:13:00,
2013-08-08 03:18:00,58.2,54.3,29.98,SSE,166,0.0,1.0,87,0.00,,,0.00,Wunderground v.1.15,2013-08-08 08:18:00,
2013-08-08 03:23:00,58.2,54.7,29.98,SSE,166,3.0,3.0,88,0.00,,,0.00,Wunderground v.1.15,2013-08-08 08:23:00,
2013-08-08 03:28:00,58.2,54.7,29.98,SSE,166,0.0,1.0,88,0.00,,,0.00,Wunderground v.1.15,2013-08-08 08:28:00,
2013-08-08 03:34:00,58.2,55.0,29.98,SSE,166,0.0,1.0,89,0.00,,,0.00,Wunderground v.1.15,2013-08-08 08:34:00,
2013-08-08 03:39:00,58.1,54.9,29.99,SSE,166,0.0,1.0,89,0.00,,,0.00,Wunderground v.1.15,2013-08-08 08:39:00,
2013-08-08 03:44:00,58.1,54.9,29.98,SSE,166,0.0,1.0,89,0.00,,,0.00,Wunderground v.1.15,2013-08-08 08:44:00,
2013-08-08 03:49:00,58.1,54.6,29.98,SSE,166,1.0,1.0,88,0.00,,,0.00,Wunderground v.1.15,2013-08-08 08:49:00,
2013-08-08 03:54:00,58.2,55.0,29.98,SSE,166,1.0,3.0,89,0.00,,,0.00,Wunderground v.1.15,2013-08-08 08:54:00,
2013-08-08 03:59:00,58.2,55.0,29.98,SSE,166,0.0,1.0,89,0.00,,,0.00,Wunderground v.1.15,2013-08-08 08:59:00,
2013-08-08 04:04:00,58.2,54.3,29.97,SSE,166,1.0,1.0,87,0.00,,,0.00,Wunderground v.1.15,2013-08-08 09:04:00,
2013-08-08 04:09:00,58.3,54.4,29.97,SSE,166,0.0,1.0,87,0.00,,,0.00,Wunderground v.1.15,2013-08-08 09:09:00,
2013-08-08 04:14:00,58.4,54.9,29.96,SSE,166,0.0,3.0,88,0.00,,,0.00,Wunderground v.1.15,2013-08-08 09:14:00,
2013-08-08 04:19:00,58.4,54.5,29.96,SSE,153,1.0,3.0,87,0.00,,,0.00,Wunderground v.1.15,2013-08-08 09:19:00,
2013-08-08 04:24:00,58.4,53.6,29.96,SE,138,2.0,2.0,84,0.00,,,0.00,Wunderground v.1.15,2013-08-08 09:24:00,
2013-08-08 04:25:00,58.4,53.6,29.96,SE,138,2.0,2.0,84,0.00,,,0.00,Wunderground v.1.15,2013-08-08 09:25:00,
2013-08-08 04:30:00,58.5,53.7,29.96,South,177,1.0,3.0,84,0.00,,,0.00,Wunderground v.1.15,2013-08-08 09:30:00,
2013-08-08 04:35:00,58.6,53.5,29.95,SE,131,1.0,1.0,83,0.00,,,0.00,Wunderground v.1.15,2013-08-08 09:35:00,
2013-08-08 04:40:00,58.7,53.5,29.95,SE,131,2.0,2.0,83,0.00,,,0.00,Wunderground v.1.15,2013-08-08 09:40:00,
2013-08-08 04:45:00,58.9,53.7,29.95,ENE,67,3.0,3.0,83,0.00,,,0.00,Wunderground v.1.15,2013-08-08 09:45:00,
2013-08-08 04:50:00,58.9,53.7,29.95,SSE,155,0.0,4.0,83,0.00,,,0.00,Wunderground v.1.15,2013-08-08 09:50:00,
2013-08-08 04:55:00,59.0,54.2,29.95,SSE,167,3.0,4.0,84,0.00,,,0.00,Wunderground v.1.15,2013-08-08 09:55:00,
2013-08-08 05:00:00,58.9,54.4,29.94,South,186,2.0,4.0,85,0.00,,,0.00,Wunderground v.1.15,2013-08-08 10:00:00,
2013-08-08 05:06:00,58.8,54.6,29.94,South,186,1.0,2.0,86,0.00,,,0.00,Wunderground v.1.15,2013-08-08 10:06:00,
2013-08-08 05:11:00,58.5,54.0,29.94,South,186,2.0,2.0,85,0.00,,,0.00,Wunderground v.1.15,2013-08-08 10:11:00,
2013-08-08 05:16:00,58.1,53.9,29.94,SSE,159,2.0,4.0,86,0.00,,,0.00,Wunderground v.1.15,2013-08-08 10:16:00,
2013-08-08 05:21:00,57.7,53.5,29.94,SE,138,2.0,5.0,86,0.00,,,0.00,Wunderground v.1.15,2013-08-08 10:21:00,
2013-08-08 05:26:00,57.5,53.3,29.93,SSE,149,4.0,4.0,86,0.00,,,0.00,Wunderground v.1.15,2013-08-08 10:26:00,
2013-08-08 05:31:00,57.5,53.3,29.93,SE,142,3.0,5.0,86,0.00,,,0.00,Wunderground v.1.15,2013-08-08 10:31:00,
2013-08-08 05:36:00,57.4,53.2,29.93,SSE,159,1.0,3.0,86,0.00,,,0.00,Wunderground v.1.15,2013-08-08 10:36:00,
2013-08-08 05:42:00,57.2,53.0,29.93,SSE,159,0.0,3.0,86,0.00,,,0.00,Wunderground v.1.15,2013-08-08 10:42:00,
2013-08-08 05:47:00,57.1,53.3,29.93,SSE,159,1.0,2.0,87,0.00,,,0.00,Wunderground v.1.15,2013-08-08 10:47:00,
2013-08-08 05:52:00,56.9,53.1,29.94,SSE,159,4.0,4.0,87,0.00,,,0.00,Wunderground v.1.15,2013-08-08 10:52:00,
2013-08-08 05:57:00,56.7,52.9,29.94,SSE,155,3.0,3.0,87,0.00,,,0.00,Wunderground v.1.15,2013-08-08 10:57:00,
2013-08-08 06:02:00,56.6,53.1,29.94,SSE,156,3.0,4.0,88,0.00,,,0.00,Wunderground v.1.15,2013-08-08 11:02:00,
2013-08-08 06:07:00,56.5,53.0,29.95,South,171,2.0,5.0,88,0.00,,,0.00,Wunderground v.1.15,2013-08-08 11:07:00,
2013-08-08 06:13:00,56.4,52.9,29.95,SE,142,3.0,5.0,88,0.00,,,0.00,Wunderground v.1.15,2013-08-08 11:13:00,
2013-08-08 06:18:00,56.4,52.9,29.96,SSE,148,2.0,3.0,88,0.00,,,0.00,Wunderground v.1.15,2013-08-08 11:18:00,
2013-08-08 06:23:00,56.4,52.9,29.96,SSE,154,3.0,5.0,88,0.00,,,0.00,Wunderground v.1.15,2013-08-08 11:23:00,
2013-08-08 06:28:00,56.4,53.2,29.96,SSE,153,2.0,3.0,89,0.00,,,0.00,Wunderground v.1.15,2013-08-08 11:28:00,
2013-08-08 06:33:00,56.5,53.3,29.97,SSE,153,2.0,3.0,89,0.00,,,0.00,Wunderground v.1.15,2013-08-08 11:33:00,
2013-08-08 06:39:00,56.5,53.6,29.97,SSE,153,3.0,3.0,90,0.00,,,0.00,Wunderground v.1.15,2013-08-08 11:39:00,
2013-08-08 06:44:00,56.6,53.4,29.96,SSE,148,4.0,7.0,89,0.00,,,0.00,Wunderground v.1.15,2013-08-08 11:44:00,
2013-08-08 06:49:00,56.7,53.5,29.96,SSE,155,3.0,6.0,89,0.00,,,0.00,Wunderground v.1.15,2013-08-08 11:49:00,
2013-08-08 06:54:00,56.6,53.4,29.96,SSE,153,2.0,6.0,89,0.00,,,0.00,Wunderground v.1.15,2013-08-08 11:54:00,
2013-08-08 06:59:00,56.6,53.4,29.96,SE,140,3.0,6.0,89,0.00,,,0.00,Wunderground v.1.15,2013-08-08 11:59:00,
2013-08-08 07:04:00,56.8,53.6,29.96,SE,136,5.0,7.0,89,0.00,,,0.00,Wunderground v.1.15,2013-08-08 12:04:00,
2013-08-08 07:09:00,57.1,53.9,29.97,SE,132,3.0,7.0,89,0.00,,,0.00,Wunderground v.1.15,2013-08-08 12:09:00,
2013-08-08 07:14:00,57.5,54.3,29.96,ESE,118,3.0,3.0,89,0.00,,,0.00,Wunderground v.1.15,2013-08-08 12:14:00,
2013-08-08 07:19:00,58.1,54.2,29.96,South,169,6.0,9.0,87,0.00,,,0.00,Wunderground v.1.15,2013-08-08 12:19:00,
2013-08-08 07:25:00,58.5,54.6,29.96,SE,145,4.0,5.0,87,0.00,,,0.00,Wunderground v.1.15,2013-08-08 12:25:00,
2013-08-08 07:30:00,58.8,54.6,29.97,South,179,3.0,8.0,86,0.00,,,0.00,Wunderground v.1.15,2013-08-08 12:30:00,
2013-08-08 07:35:00,59.1,54.9,29.97,SSW,203,5.0,6.0,86,0.00,,,0.00,Wunderground v.1.15,2013-08-08 12:35:00,
2013-08-08 07:40:00,59.1,54.9,29.98,South,191,6.0,7.0,86,0.00,,,0.00,Wunderground v.1.15,2013-08-08 12:40:00,
2013-08-08 07:45:00,59.2,55.3,29.98,South,191,5.0,8.0,87,0.00,,,0.00,Wunderground v.1.15,2013-08-08 12:45:00,
2013-08-08 07:51:00,59.1,55.5,29.98,South,170,6.0,9.0,88,0.00,,,0.00,Wunderground v.1.15,2013-08-08 12:51:00,
2013-08-08 07:56:00,59.0,55.8,29.98,South,180,7.0,7.0,89,0.00,,,0.00,Wunderground v.1.15,2013-08-08 12:56:00,
2013-08-08 08:01:00,58.9,55.7,29.98,SSE,162,5.0,7.0,89,0.00,,,0.00,Wunderground v.1.15,2013-08-08 13:01:00,
2013-08-08 08:06:00,58.8,55.9,29.97,SE,146,11.0,11.0,90,0.00,,,0.00,Wunderground v.1.15,2013-08-08 13:06:00,
2013-08-08 08:11:00,58.9,56.0,29.97,South,177,5.0,11.0,90,0.00,,,0.00,Wunderground v.1.15,2013-08-08 13:11:00,
2013-08-08 08:16:00,59.1,55.9,29.97,SSE,151,4.0,11.0,89,0.00,,,0.00,Wunderground v.1.15,2013-08-08 13:16:00,
2013-08-08 08:21:00,59.4,56.2,29.97,SSE,168,10.0,11.0,89,0.00,,,0.00,Wunderground v.1.15,2013-08-08 13:21:00,
2013-08-08 08:26:00,59.7,56.1,29.97,SSE,158,7.0,8.0,88,0.00,,,0.00,Wunderground v.1.15,2013-08-08 13:26:00,
2013-08-08 08:31:00,60.0,56.4,29.97,SSE,152,7.0,9.0,88,0.00,,,0.00,Wunderground v.1.15,2013-08-08 13:31:00,
2013-08-08 08:36:00,60.1,56.5,29.97,South,169,5.0,7.0,88,0.00,,,0.00,Wunderground v.1.15,2013-08-08 13:36:00,
2013-08-08 08:41:00,60.3,56.7,29.98,South,174,5.0,9.0,88,0.00,,,0.00,Wunderground v.1.15,2013-08-08 13:41:00,
2013-08-08 08:46:00,60.4,57.1,29.98,South,189,5.0,6.0,89,0.00,,,0.00,Wunderground v.1.15,2013-08-08 13:46:00,
2013-08-08 08:51:00,60.6,57.3,29.98,South,170,6.0,7.0,89,0.00,,,0.00,Wunderground v.1.15,2013-08-08 13:51:00,
2013-08-08 08:56:00,60.8,57.2,29.98,South,181,4.0,8.0,88,0.00,,,0.00,Wunderground v.1.15,2013-08-08 13:56:00,
2013-08-08 09:01:00,61.0,57.4,29.98,South,191,5.0,8.0,88,0.00,,,0.00,Wunderground v.1.15,2013-08-08 14:01:00,
2013-08-08 09:07:00,61.3,57.1,29.98,SSW,198,4.0,9.0,86,0.00,,,0.00,Wunderground v.1.15,2013-08-08 14:07:00,
2013-08-08 09:12:00,61.5,56.9,29.99,South,191,4.0,9.0,85,0.00,,,0.00,Wunderground v.1.15,2013-08-08 14:12:00,
2013-08-08 09:17:00,61.7,57.5,29.99,South,189,6.0,8.0,86,0.00,,,0.00,Wunderground v.1.15,2013-08-08 14:17:00,
2013-08-08 09:22:00,62.1,57.5,29.99,SSW,195,4.0,8.0,85,0.00,,,0.00,Wunderground v.1.15,2013-08-08 14:22:00,
2013-08-08 09:27:00,62.4,57.8,29.99,South,190,3.0,8.0,85,0.00,,,0.00,Wunderground v.1.15,2013-08-08 14:27:00,
2013-08-08 09:32:00,62.9,58.0,29.99,SSW,201,2.0,8.0,84,0.00,,,0.00,Wunderground v.1.15,2013-08-08 14:32:00,
2013-08-08 09:37:00,63.3,58.0,29.99,SSE,159,2.0,5.0,83,0.00,,,0.00,Wunderground v.1.15,2013-08-08 14:37:00,
2013-08-08 09:42:00,63.9,57.6,29.99,SE,135,3.0,5.0,80,0.00,,,0.00,Wunderground v.1.15,2013-08-08 14:42:00,
2013-08-08 09:47:00,64.0,57.4,30.00,SSE,157,2.0,3.0,79,0.00,,,0.00,Wunderground v.1.15,2013-08-08 14:47:00,
2013-08-08 09:52:00,64.2,57.2,30.00,East,98,1.0,4.0,78,0.00,,,0.00,Wunderground v.1.15,2013-08-08 14:52:00,
2013-08-08 09:57:00,64.3,57.6,30.01,NNE,15,9.0,9.0,79,0.00,,,0.00,Wunderground v.1.15,2013-08-08 14:57:00,
2013-08-08 10:02:00,64.0,57.7,30.01,North,355,9.0,13.0,80,0.00,,,0.00,Wunderground v.1.15,2013-08-08 15:02:00,
2013-08-08 10:07:00,63.7,57.4,30.01,ENE,58,5.0,11.0,80,0.00,,,0.00,Wunderground v.1.15,2013-08-08 15:07:00,
2013-08-08 10:12:00,64.7,58.7,30.01,NE,34,8.0,11.0,81,0.00,,,0.00,Wunderground v.1.15,2013-08-08 15:12:00,
2013-08-08 10:17:00,64.8,58.1,30.01,NE,42,5.0,10.0,79,0.00,,,0.00,Wunderground v.1.15,2013-08-08 15:17:00,
2013-08-08 10:22:00,64.8,57.8,30.01,NE,38,9.0,11.0,78,0.00,,,0.00,Wunderground v.1.15,2013-08-08 15:22:00,
2013-08-08 10:27:00,65.0,57.6,30.01,NE,42,9.0,11.0,77,0.00,,,0.00,Wunderground v.1.15,2013-08-08 15:27:00,
2013-08-08 10:28:00,65.1,57.7,30.01,ENE,65,10.0,11.0,77,0.00,,,0.00,Wunderground v.1.15,2013-08-08 15:28:00,
2013-08-08 10:33:00,65.2,57.8,30.01,NE,34,6.0,11.0,77,0.00,,,0.00,Wunderground v.1.15,2013-08-08 15:33:00,
2013-08-08 10:38:00,64.9,57.9,30.01,NE,34,5.0,12.0,78,0.00,,,0.00,Wunderground v.1.15,2013-08-08 15:38:00,
2013-08-08 10:43:00,64.7,57.7,30.01,ENE,59,6.0,12.0,78,0.00,,,0.00,Wunderground v.1.15,2013-08-08 15:43:00,
2013-08-08 10:48:00,64.6,57.6,30.02,NE,48,6.0,9.0,78,0.00,,,0.00,Wunderground v.1.15,2013-08-08 15:48:00,
2013-08-08 10:53:00,64.3,58.3,30.02,ENE,61,5.0,9.0,81,0.00,,,0.00,Wunderground v.1.15,2013-08-08 15:53:00,
2013-08-08 10:58:00,63.9,58.6,30.02,East,83,4.0,7.0,83,0.00,,,0.00,Wunderground v.1.15,2013-08-08 15:58:00,
2013-08-08 11:03:00,63.6,58.7,30.02,ENE,69,4.0,8.0,84,0.00,,,0.01,Wunderground v.1.15,2013-08-08 16:03:00,
2013-08-08 11:08:00,63.3,59.0,30.01,ENE,73,3.0,7.0,86,0.00,,,0.01,Wunderground v.1.15,2013-08-08 16:08:00,
2013-08-08 11:13:00,62.9,58.6,30.02,ENE,67,4.0,8.0,86,0.00,,,0.01,Wunderground v.1.15,2013-08-08 16:13:00,
2013-08-08 11:18:00,62.6,58.4,30.02,NE,50,4.0,8.0,86,0.00,,,0.01,Wunderground v.1.15,2013-08-08 16:18:00,
2013-08-08 11:23:00,62.3,58.4,30.02,ENE,78,3.0,9.0,87,0.00,,,0.01,Wunderground v.1.15,2013-08-08 16:23:00,
2013-08-08 11:28:00,62.0,58.4,30.01,East,84,2.0,4.0,88,0.00,,,0.01,Wunderground v.1.15,2013-08-08 16:28:00,
2013-08-08 11:33:00,61.9,58.3,30.02,ESE,103,3.0,4.0,88,0.00,,,0.01,Wunderground v.1.15,2013-08-08 16:33:00,
2013-08-08 11:38:00,61.9,58.3,30.02,ENE,65,2.0,5.0,88,0.00,,,0.01,Wunderground v.1.15,2013-08-08 16:38:00,
2013-08-08 11:43:00,61.9,58.0,30.02,ENE,63,4.0,8.0,87,0.00,,,0.01,Wunderground v.1.15,2013-08-08 16:43:00,
2013-08-08 11:48:00,61.7,58.1,30.02,ENE,69,3.0,4.0,88,0.00,,,0.01,Wunderground v.1.15,2013-08-08 16:48:00,
2013-08-08 11:53:00,61.8,58.5,30.02,ENE,57,2.0,4.0,89,0.00,,,0.01,Wunderground v.1.15,2013-08-08 16:53:00,
2013-08-08 11:58:00,62.2,58.6,30.02,ENE,57,4.0,4.0,88,0.00,,,0.01,Wunderground v.1.15,2013-08-08 16:58:00,
2013-08-08 12:03:00,62.4,58.8,30.02,NE,53,2.0,5.0,88,0.00,,,0.01,Wunderground v.1.15,2013-08-08 17:03:00,
2013-08-08 12:08:00,62.9,59.0,30.02,East,81,3.0,6.0,87,0.00,,,0.01,Wunderground v.1.15,2013-08-08 17:08:00,
2013-08-08 12:13:00,63.2,59.9,30.02,ENE,58,5.0,7.0,89,0.00,,,0.01,Wunderground v.1.15,2013-08-08 17:13:00,
2013-08-08 12:18:00,63.6,59.7,30.02,ENE,65,8.0,8.0,87,0.00,,,0.01,Wunderground v.1.15,2013-08-08 17:18:00,
2013-08-08 12:23:00,63.7,59.8,30.02,ENE,70,2.0,9.0,87,0.00,,,0.01,Wunderground v.1.15,2013-08-08 17:23:00,
2013-08-08 12:28:00,63.6,59.0,30.02,ENE,72,4.0,4.0,85,0.00,,,0.01,Wunderground v.1.15,2013-08-08 17:28:00,
2013-08-08 12:33:00,63.6,59.0,30.02,ESE,115,1.0,8.0,85,0.00,,,0.01,Wunderground v.1.15,2013-08-08 17:33:00,
2013-08-08 12:38:00,63.7,59.4,30.02,ENE,60,4.0,5.0,86,0.00,,,0.01,Wunderground v.1.15,2013-08-08 17:38:00,
2013-08-08 12:45:00,64.3,60.3,30.02,NE,56,3.0,4.0,87,0.00,,,0.01,Wunderground v.1.15,2013-08-08 17:45:00,
2013-08-08 12:50:00,65.2,60.6,30.01,ENE,73,3.0,8.0,85,0.00,,,0.02,Wunderground v.1.15,2013-08-08 17:50:00,
2013-08-08 12:55:00,65.6,61.3,30.02,SE,130,3.0,3.0,86,0.00,,,0.02,Wunderground v.1.15,2013-08-08 17:55:00,
2013-08-08 13:00:00,66.0,60.7,30.01,SSE,153,7.0,12.0,83,0.00,,,0.02,Wunderground v.1.15,2013-08-08 18:00:00,
2013-08-08 13:05:00,65.7,60.4,30.01,SE,146,4.0,8.0,83,0.00,,,0.02,Wunderground v.1.15,2013-08-08 18:05:00,
2013-08-08 13:10:00,65.9,60.2,30.00,SSE,155,3.0,10.0,82,0.00,,,0.02,Wunderground v.1.15,2013-08-08 18:10:00,
2013-08-08 13:15:00,65.9,60.6,30.00,East,89,5.0,6.0,83,0.00,,,0.02,Wunderground v.1.15,2013-08-08 18:15:00,
2013-08-08 13:20:00,66.4,60.4,30.00,SSE,147,2.0,10.0,81,0.00,,,0.02,Wunderground v.1.15,2013-08-08 18:20:00,
2013-08-08 13:25:00,66.5,60.8,30.00,SE,144,5.0,8.0,82,0.00,,,0.02,Wunderground v.1.15,2013-08-08 18:25:00,
2013-08-08 13:30:00,67.6,61.9,30.00,ESE,105,6.0,8.0,82,0.00,,,0.02,Wunderground v.1.15,2013-08-08 18:30:00,
2013-08-08 13:35:00,68.7,61.2,30.00,ESE,115,4.0,6.0,77,0.00,,,0.02,Wunderground v.1.15,2013-08-08 18:35:00,
2013-08-08 13:40:00,68.6,61.1,30.00,SE,146,4.0,8.0,77,0.00,,,0.02,Wunderground v.1.15,2013-08-08 18:40:00,
2013-08-08 13:45:00,69.3,62.1,29.99,ESE,116,10.0,13.0,78,0.00,,,0.02,Wunderground v.1.15,2013-08-08 18:45:00,
2013-08-08 13:50:00,69.6,61.7,29.99,SE,140,4.0,13.0,76,0.00,,,0.02,Wunderground v.1.15,2013-08-08 18:50:00,
2013-08-08 13:55:00,69.1,61.2,29.99,SE,130,7.0,9.0,76,0.00,,,0.02,Wunderground v.1.15,2013-08-08 18:55:00,
2013-08-08 14:00:00,68.7,60.8,29.99,South,175,3.0,9.0,76,0.00,,,0.02,Wunderground v.1.15,2013-08-08 19:00:00,
2013-08-08 14:05:00,68.9,61.8,29.99,SSE,166,7.0,7.0,78,0.00,,,0.02,Wunderground v.1.15,2013-08-08 19:05:00,
2013-08-08 14:10:00,70.1,63.6,29.99,SE,145,9.0,10.0,80,0.00,,,0.02,Wunderground v.1.15,2013-08-08 19:10:00,
2013-08-08 14:15:00,70.6,62.7,29.99,SSE,166,11.0,11.0,76,0.00,,,0.02,Wunderground v.1.15,2013-08-08 19:15:00,
2013-08-08 14:20:00,70.2,62.3,29.99,SE,135,8.0,11.0,76,0.00,,,0.02,Wunderground v.1.15,2013-08-08 19:20:00,
2013-08-08 14:25:00,70.2,62.6,29.99,SE,141,5.0,5.0,77,0.00,,,0.02,Wunderground v.1.15,2013-08-08 19:25:00,
2013-08-08 14:30:00,70.5,62.6,29.98,SSE,153,5.0,11.0,76,0.00,,,0.02,Wunderground v.1.15,2013-08-08 19:30:00,
2013-08-08 14:35:00,70.6,63.0,29.98,SSE,155,7.0,10.0,77,0.00,,,0.02,Wunderground v.1.15,2013-08-08 19:35:00,
2013-08-08 14:40:00,70.7,62.8,29.98,South,171,5.0,10.0,76,0.00,,,0.02,Wunderground v.1.15,2013-08-08 19:40:00,
2013-08-08 14:45:00,71.7,63.7,29.98,South,175,4.0,9.0,76,0.00,,,0.02,Wunderground v.1.15,2013-08-08 19:45:00,
2013-08-08 14:50:00,72.3,63.2,29.98,SSE,155,7.0,10.0,73,0.00,,,0.02,Wunderground v.1.15,2013-08-08 19:50:00,
2013-08-08 14:55:00,71.9,63.5,29.97,South,190,6.0,6.0,75,0.00,,,0.02,Wunderground v.1.15,2013-08-08 19:55:00,
2013-08-08 15:00:00,72.5,64.5,29.97,SW,223,4.0,8.0,76,0.00,,,0.02,Wunderground v.1.15,2013-08-08 20:00:00,
2013-08-08 15:06:00,73.0,64.2,29.97,SW,216,3.0,5.0,74,0.00,,,0.02,Wunderground v.1.15,2013-08-08 20:06:00,
2013-08-08 15:10:00,73.3,63.7,29.97,SW,231,8.0,10.0,72,0.00,,,0.02,Wunderground v.1.15,2013-08-08 20:10:00,
2013-08-08 15:16:00,72.7,63.9,29.97,SSW,205,7.0,10.0,74,0.00,,,0.02,Wunderground v.1.15,2013-08-08 20:16:00,
2013-08-08 15:21:00,72.6,63.8,29.96,SW,222,7.0,10.0,74,0.00,,,0.02,Wunderground v.1.15,2013-08-08 20:21:00,
2013-08-08 15:26:00,72.9,63.7,29.96,SW,226,5.0,11.0,73,0.00,,,0.02,Wunderground v.1.15,2013-08-08 20:26:00,
2013-08-08 15:31:00,73.2,64.4,29.96,SSW,211,5.0,11.0,74,0.00,,,0.02,Wunderground v.1.15,2013-08-08 20:31:00,
2013-08-08 15:36:00,73.0,64.2,29.96,SW,222,6.0,9.0,74,0.00,,,0.02,Wunderground v.1.15,2013-08-08 20:36:00,
2013-08-08 15:41:00,73.0,64.2,29.96,SSW,211,6.0,10.0,74,0.00,,,0.02,Wunderground v.1.15,2013-08-08 20:41:00,
2013-08-08 15:46:00,73.8,65.0,29.96,SSW,207,4.0,9.0,74,0.00,,,0.02,Wunderground v.1.15,2013-08-08 20:46:00,
2013-08-08 15:51:00,74.2,64.2,29.96,WSW,243,5.0,9.0,71,0.00,,,0.02,Wunderground v.1.15,2013-08-08 20:51:00,
2013-08-08 15:56:00,75.7,64.8,29.96,WSW,250,7.0,11.0,69,0.00,,,0.02,Wunderground v.1.15,2013-08-08 20:56:00,
2013-08-08 16:01:00,76.2,64.4,29.96,WSW,242,4.0,11.0,67,0.00,,,0.02,Wunderground v.1.15,2013-08-08 21:01:00,
2013-08-08 16:06:00,77.0,64.8,29.96,WSW,242,8.0,10.0,66,0.00,,,0.02,Wunderground v.1.15,2013-08-08 21:06:00,
2013-08-08 16:11:00,76.7,64.5,29.95,WSW,252,7.0,13.0,66,0.00,,,0.02,Wunderground v.1.15,2013-08-08 21:11:00,
2013-08-08 16:16:00,76.9,64.7,29.95,WSW,239,9.0,11.0,66,0.00,,,0.02,Wunderground v.1.15,2013-08-08 21:16:00,
2013-08-08 16:21:00,76.1,64.3,29.95,SW,230,4.0,11.0,67,0.00,,,0.02,Wunderground v.1.15,2013-08-08 21:21:00,
2013-08-08 16:27:00,75.9,65.0,29.95,SSW,209,6.0,6.0,69,0.00,,,0.02,Wunderground v.1.15,2013-08-08 21:27:00,
2013-08-08 16:32:00,76.9,65.1,29.95,SW,215,6.0,8.0,67,0.00,,,0.02,Wunderground v.1.15,2013-08-08 21:32:00,
2013-08-08 16:38:00,76.4,65.1,29.95,West,275,11.0,11.0,68,0.00,,,0.02,Wunderground v.1.15,2013-08-08 21:38:00,
2013-08-08 16:43:00,76.2,65.7,29.95,WSW,244,10.0,11.0,70,0.00,,,0.02,Wunderground v.1.15,2013-08-08 21:43:00,
2013-08-08 16:48:00,76.0,65.1,29.96,WSW,248,10.0,10.0,69,0.00,,,0.02,Wunderground v.1.15,2013-08-08 21:48:00,
2013-08-08 16:53:00,75.4,64.5,29.96,West,277,6.0,12.0,69,0.00,,,0.02,Wunderground v.1.15,2013-08-08 21:53:00,
2013-08-08 16:58:00,74.9,64.5,29.96,West,259,7.0,9.0,70,0.00,,,0.02,Wunderground v.1.15,2013-08-08 21:58:00,
2013-08-08 17:04:00,74.8,64.8,29.95,WSW,243,5.0,11.0,71,0.00,,,0.02,Wunderground v.1.15,2013-08-08 22:04:00,
2013-08-08 17:09:00,74.9,65.3,29.95,WSW,245,9.0,10.0,72,0.00,,,0.02,Wunderground v.1.15,2013-08-08 22:09:00,
2013-08-08 17:14:00,74.8,65.6,29.95,SW,217,5.0,10.0,73,0.00,,,0.02,Wunderground v.1.15,2013-08-08 22:14:00,
2013-08-08 17:20:00,74.8,65.2,29.95,WSW,241,4.0,9.0,72,0.00,,,0.02,Wunderground v.1.15,2013-08-08 22:20:00,
2013-08-08 17:25:00,74.9,65.3,29.95,South,190,7.0,7.0,72,0.00,,,0.02,Wunderground v.1.15,2013-08-08 22:25:00,
2013-08-08 17:30:00,75.5,65.8,29.95,WSW,237,6.0,10.0,72,0.00,,,0.02,Wunderground v.1.15,2013-08-08 22:30:00,
2013-08-08 17:36:00,75.3,66.0,29.95,West,271,6.0,10.0,73,0.00,,,0.02,Wunderground v.1.15,2013-08-08 22:36:00,
2013-08-08 17:41:00,76.0,65.9,29.95,SSW,201,7.0,10.0,71,0.00,,,0.02,Wunderground v.1.15,2013-08-08 22:41:00,
2013-08-08 17:46:00,74.8,65.2,29.95,SSW,198,6.0,8.0,72,0.00,,,0.02,Wunderground v.1.15,2013-08-08 22:46:00,
2013-08-08 17:52:00,74.2,65.4,29.95,SSW,204,8.0,9.0,74,0.00,,,0.02,Wunderground v.1.15,2013-08-08 22:52:00,
2013-08-08 17:58:00,74.0,65.6,29.95,WSW,243,10.0,10.0,75,0.00,,,0.02,Wunderground v.1.15,2013-08-08 22:58:00,
2013-08-08 18:04:00,74.5,65.7,29.95,SSW,204,7.0,10.0,74,0.00,,,0.02,Wunderground v.1.15,2013-08-08 23:04:00,
2013-08-08 18:09:00,74.4,65.2,29.95,SW,227,8.0,9.0,73,0.00,,,0.02,Wunderground v.1.15,2013-08-08 23:09:00,
2013-08-08 18:14:00,74.5,65.3,29.95,SW,227,12.0,12.0,73,0.00,,,0.02,Wunderground v.1.15,2013-08-08 23:14:00,
2013-08-08 18:19:00,74.5,65.7,29.95,SW,215,6.0,9.0,74,0.00,,,0.02,Wunderground v.1.15,2013-08-08 23:19:00,
2013-08-08 18:24:00,74.4,65.2,29.95,SSW,208,7.0,10.0,73,0.00,,,0.02,Wunderground v.1.15,2013-08-08 23:24:00,
2013-08-08 18:29:00,74.0,64.8,29.95,SW,223,5.0,7.0,73,0.00,,,0.02,Wunderground v.1.15,2013-08-08 23:29:00,
2013-08-08 18:35:00,74.2,65.0,29.95,SW,221,3.0,6.0,73,0.00,,,0.02,Wunderground v.1.15,2013-08-08 23:35:00,
2013-08-08 18:40:00,74.0,65.2,29.95,SW,236,6.0,7.0,74,0.00,,,0.02,Wunderground v.1.15,2013-08-08 23:40:00,
2013-08-08 18:45:00,74.2,65.4,29.95,SW,217,6.0,6.0,74,0.00,,,0.02,Wunderground v.1.15,2013-08-08 23:45:00,
2013-08-08 18:51:00,74.0,64.8,29.95,WSW,243,3.0,7.0,73,0.00,,,0.02,Wunderground v.1.15,2013-08-08 23:51:00,
2013-08-08 18:56:00,73.7,64.9,29.95,WSW,248,2.0,4.0,74,0.00,,,0.02,Wunderground v.1.15,2013-08-08 23:56:00,
2013-08-08 19:01:00,73.6,65.2,29.95,WSW,257,2.0,4.0,75,0.00,,,0.02,Wunderground v.1.15,2013-08-09 00:01:00,
2013-08-08 19:06:00,73.5,65.1,29.95,SSW,205,4.0,5.0,75,0.00,,,0.02,Wunderground v.1.15,2013-08-09 00:06:00,
2013-08-08 19:11:00,73.3,64.9,29.95,SSW,200,5.0,6.0,75,0.00,,,0.02,Wunderground v.1.15,2013-08-09 00:11:00,
2013-08-08 19:16:00,73.1,65.1,29.95,SW,218,7.0,7.0,76,0.00,,,0.02,Wunderground v.1.15,2013-08-09 00:16:00,
2013-08-08 19:21:00,73.1,65.1,29.95,SW,228,6.0,7.0,76,0.00,,,0.02,Wunderground v.1.15,2013-08-09 00:21:00,
2013-08-08 19:27:00,72.8,65.2,29.95,SSW,198,5.0,6.0,77,0.00,,,0.02,Wunderground v.1.15,2013-08-09 00:27:00,
2013-08-08 19:32:00,72.2,65.3,29.95,SSW,203,4.0,6.0,79,0.00,,,0.02,Wunderground v.1.15,2013-08-09 00:32:00,
2013-08-08 19:37:00,71.8,65.3,29.95,SSW,201,2.0,5.0,80,0.00,,,0.02,Wunderground v.1.15,2013-08-09 00:37:00,
2013-08-08 19:42:00,71.3,65.2,29.95,SSW,194,4.0,5.0,81,0.00,,,0.02,Wunderground v.1.15,2013-08-09 00:42:00,
2013-08-08 19:48:00,70.7,65.3,29.95,SSW,194,2.0,3.0,83,0.00,,,0.02,Wunderground v.1.15,2013-08-09 00:48:00,
2013-08-08 19:53:00,70.4,65.0,29.95,SSW,207,3.0,4.0,83,0.00,,,0.02,Wunderground v.1.15,2013-08-09 00:53:00,
2013-08-08 19:58:00,70.4,65.0,29.95,SSW,207,3.0,3.0,83,0.00,,,0.02,Wunderground v.1.15,2013-08-09 00:58:00,
2013-08-08 20:04:00,70.3,65.2,29.95,SSW,202,2.0,4.0,84,0.00,,,0.02,Wunderground v.1.15,2013-08-09 01:04:00,
2013-08-08 20:09:00,70.2,65.1,29.95,SSW,202,3.0,4.0,84,0.00,,,0.02,Wunderground v.1.15,2013-08-09 01:09:00,
2013-08-08 20:14:00,70.0,64.9,29.95,SSW,202,2.0,4.0,84,0.00,,,0.02,Wunderground v.1.15,2013-08-09 01:14:00,
2013-08-08 20:19:00,69.8,65.1,29.95,SSW,202,3.0,3.0,85,0.00,,,0.02,Wunderground v.1.15,2013-08-09 01:19:00,
2013-08-08 20:24:00,69.5,64.8,29.95,SSW,202,3.0,3.0,85,0.00,,,0.02,Wunderground v.1.15,2013-08-09 01:24:00,
2013-08-08 20:29:00,69.2,64.8,29.94,SSW,204,3.0,4.0,86,0.00,,,0.02,Wunderground v.1.15,2013-08-09 01:29:00,
2013-08-08 20:34:00,68.9,64.9,29.94,SSW,198,4.0,4.0,87,0.00,,,0.02,Wunderground v.1.15,2013-08-09 01:34:00,
2013-08-08 20:39:00,68.6,64.6,29.94,SSW,194,3.0,5.0,87,0.00,,,0.02,Wunderground v.1.15,2013-08-09 01:39:00,
2013-08-08 20:45:00,68.4,64.4,29.94,SSW,194,3.0,3.0,87,0.00,,,0.02,Wunderground v.1.15,2013-08-09 01:45:00,
2013-08-08 20:50:00,68.1,64.4,29.94,SSW,200,3.0,4.0,88,0.00,,,0.02,Wunderground v.1.15,2013-08-09 01:50:00,
2013-08-08 20:55:00,67.9,64.2,29.94,SSW,200,1.0,3.0,88,0.00,,,0.02,Wunderground v.1.15,2013-08-09 01:55:00,
2013-08-08 21:00:00,67.7,64.0,29.94,SSW,200,2.0,3.0,88,0.00,,,0.02,Wunderground v.1.15,2013-08-09 02:00:00,
2013-08-08 21:05:00,67.5,64.1,29.94,SSW,200,2.0,2.0,89,0.00,,,0.02,Wunderground v.1.15,2013-08-09 02:05:00,
2013-08-08 21:10:00,67.2,63.8,29.94,SSW,200,2.0,2.0,89,0.00,,,0.02,Wunderground v.1.15,2013-08-09 02:10:00,
2013-08-08 21:15:00,67.0,63.6,29.94,SSW,200,2.0,2.0,89,0.00,,,0.02,Wunderground v.1.15,2013-08-09 02:15:00,
2013-08-08 21:20:00,66.8,63.8,29.94,SSW,200,2.0,3.0,90,0.00,,,0.02,Wunderground v.1.15,2013-08-09 02:20:00,
2013-08-08 21:26:00,66.6,63.6,29.94,SSW,200,2.0,2.0,90,0.00,,,0.02,Wunderground v.1.15,2013-08-09 02:26:00,
2013-08-08 21:31:00,66.5,63.8,29.95,SSW,200,2.0,2.0,91,0.00,,,0.02,Wunderground v.1.15,2013-08-09 02:31:00,
2013-08-08 21:36:00,66.4,64.0,29.95,SSW,200,2.0,3.0,92,0.00,,,0.02,Wunderground v.1.15,2013-08-09 02:36:00,
2013-08-08 21:45:00,66.3,63.9,29.95,SSW,200,2.0,2.0,92,0.00,,,0.02,Wunderground v.1.15,2013-08-09 02:45:00,
2013-08-08 21:50:00,66.3,63.9,29.95,SSW,200,2.0,3.0,92,0.00,,,0.02,Wunderground v.1.15,2013-08-09 02:50:00,
2013-08-08 21:55:00,66.3,63.9,29.96,SSE,165,2.0,2.0,92,0.00,,,0.02,Wunderground v.1.15,2013-08-09 02:55:00,
2013-08-08 22:00:00,66.2,63.8,29.96,SSE,165,1.0,4.0,92,0.00,,,0.02,Wunderground v.1.15,2013-08-09 03:00:00,
2013-08-08 22:05:00,66.1,63.7,29.96,SSE,165,2.0,2.0,92,0.00,,,0.02,Wunderground v.1.15,2013-08-09 03:05:00,
2013-08-08 22:11:00,66.1,63.7,29.96,SSE,165,2.0,2.0,92,0.00,,,0.02,Wunderground v.1.15,2013-08-09 03:11:00,
2013-08-08 22:16:00,66.0,63.6,29.96,SSE,165,2.0,2.0,92,0.00,,,0.02,Wunderground v.1.15,2013-08-09 03:16:00,
2013-08-08 22:22:00,65.9,63.5,29.95,SSE,165,2.0,4.0,92,0.00,,,0.02,Wunderground v.1.15,2013-08-09 03:22:00,
2013-08-08 22:27:00,65.7,63.3,29.95,SSE,165,2.0,4.0,92,0.00,,,0.02,Wunderground v.1.15,2013-08-09 03:27:00,
2013-08-08 22:32:00,65.5,63.4,29.96,SSE,165,1.0,4.0,93,0.00,,,0.02,Wunderground v.1.15,2013-08-09 03:32:00,
2013-08-08 22:37:00,65.4,63.3,29.96,SSE,165,4.0,4.0,93,0.00,,,0.02,Wunderground v.1.15,2013-08-09 03:37:00,
2013-08-08 22:42:00,65.3,63.2,29.96,SSE,165,2.0,4.0,93,0.00,,,0.02,Wunderground v.1.15,2013-08-09 03:42:00,
2013-08-08 22:48:00,65.2,63.1,29.95,South,180,3.0,4.0,93,0.00,,,0.02,Wunderground v.1.15,2013-08-09 03:48:00,
2013-08-08 22:53:00,65.0,62.9,29.95,South,188,3.0,4.0,93,0.00,,,0.02,Wunderground v.1.15,2013-08-09 03:53:00,
2013-08-08 22:59:00,64.8,62.7,29.95,South,188,2.0,3.0,93,0.00,,,0.02,Wunderground v.1.15,2013-08-09 03:59:00,
2013-08-08 23:01:00,64.8,62.7,29.95,South,188,2.0,3.0,93,0.00,,,0.02,Wunderground v.1.15,2013-08-09 04:01:00,
2013-08-08 23:06:00,64.6,62.5,29.96,South,188,1.0,2.0,93,0.00,,,0.02,Wunderground v.1.15,2013-08-09 04:06:00,
2013-08-08 23:11:00,64.4,62.3,29.96,South,180,1.0,2.0,93,0.00,,,0.02,Wunderground v.1.15,2013-08-09 04:11:00,
2013-08-08 23:16:00,64.3,62.5,29.96,South,180,2.0,3.0,94,0.00,,,0.02,Wunderground v.1.15,2013-08-09 04:16:00,
2013-08-08 23:21:00,64.2,62.4,29.96,South,180,0.0,3.0,94,0.00,,,0.02,Wunderground v.1.15,2013-08-09 04:21:00,
2013-08-08 23:26:00,64.2,62.4,29.96,South,180,0.0,2.0,94,0.00,,,0.02,Wunderground v.1.15,2013-08-09 04:26:00,
2013-08-08 23:31:00,64.2,62.7,29.96,South,180,2.0,2.0,95,0.00,,,0.02,Wunderground v.1.15,2013-08-09 04:31:00,
2013-08-08 23:36:00,64.1,62.6,29.96,South,180,2.0,3.0,95,0.00,,,0.02,Wunderground v.1.15,2013-08-09 04:36:00,
2013-08-08 23:41:00,64.0,62.2,29.97,South,180,1.0,3.0,94,0.00,,,0.02,Wunderground v.1.15,2013-08-09 04:41:00,
2013-08-08 23:46:00,63.9,62.1,29.97,South,180,2.0,3.0,94,0.00,,,0.02,Wunderground v.1.15,2013-08-09 04:46:00,
2013-08-08 23:51:00,63.9,62.4,29.97,South,180,2.0,3.0,95,0.00,,,0.02,Wunderground v.1.15,2013-08-09 04:51:00,
2013-08-08 23:56:00,63.8,62.3,29.97,SSW,195,3.0,4.0,95,0.00,,,0.02,Wunderground v.1.15,2013-08-09 04:56:00,